Weather in Kurunda

Russia / Altai Republic     50°19′20″N   85°45′55″E
temp.,
°C
wind,
m/s
gust,
m/s
humid.,
%
clouds,
%
prec.,
mm/h
press.,
hPa
HPBL,
m
25 may, wed
wed2501:00+15se015627 0.0 101212
04:00+13e016356 0.0 101311
07:00+14ese116320 0.0 101351
10:00+21ese1146100 0.0 1011369
13:00+26nw1328100 0.0 10091479
16:00+27w2424100 0.0 10083111
19:00+24w234258 0.0 1007126
22:00+18nnw2258100 0.0 101138
26 may, thu
thu2601:00+16sse016287 0.0 101113
04:00+14nne1178100 0.3 101236
07:00+15ese1175100 0.3 101394
10:00+19s0156100 0.1 1011640
13:00+24wnw1241100 0.3 10091727
16:00+25nw123595 0.3 10072318
19:00+15nnw248599 2.9 1012165
22:00+13nw1186100 0.5 101216
27 may, fri
fri2701:00+12ssw0188100 0.5 101110
04:00+11wnw1189100 0.0 101111
07:00+12sw018353 0.0 101081
10:00+17wsw126156 0.1 1008563
13:00+22nw244220 0.8 10062169
16:00+22nnw353779 0.0 10052225
19:00+20n34495 0.1 10071580
22:00+13n22690 0.0 101021
28 may, sat
sat2801:00+11nne11780 0.0 101119
04:00+9nw017831 0.0 101211
07:00+11se017155 0.0 101388
10:00+17se1148100 0.0 1011631
13:00+22ssw12275 0.0 10081491
16:00+24wsw122324 0.0 10072332
19:00+23n233296 0.0 1006861
22:00+15nne115215 0.0 100921
29 may, sun
sun2901:00+13nw015595 0.0 101112
04:00+12sw0161100 0.0 101110
07:00+13wsw1164100 0.0 101151
10:00+17wsw1252100 0.0 1010547
13:00+20s3447100 0.3 10091797
16:00+17nnw2364100 0.6 1010463
19:00+13w3572100 0.9 1013584
22:00+11w247886 0.3 1015276